Theta_e
312 312 312 311 309 307 306 305 305 305 306 307 308 309 310 310 310 310 309 308 308 307 306 307 309 313 318 317 314 316 318 316 315 314 314 317 316 316 317 316 316 314 313 312 311 312 312 312 311 311 311 311 311 312 312 316 322 322 322 322 321 320 322 324 325 324 324 323 322 321 321 318 319 319 316 314 314 316 315 315 316 314 313 314 313 312 311 312
312 312 312 311 311 309 308 306 305 305 305 306 307 308 309 310 310 310 309 309 308 307 306 306 307 312 316 313 313 317 316 312 314 316 317 316 316 316 315 313 311 310 310 311 310 310 311 311 310 310 311 312 311 311 312 315 318 320 325 323 321 322 322 322 323 321 321 322 321 319 318 317 317 318 316 315 317 316 316 315 315 315 314 313 312 310 310 311
312 311 311 311 311 310 310 309 307 306 306 307 307 307 308 309 310 310 309 309 309 307 306 306 307 309 311 308 312 316 313 314 319 319 315 312 313 312 310 309 309 310 310 311 311 311 311 312 310 309 311 311 311 312 313 314 316 320 322 320 322 325 322 321 320 319 319 319 318 317 317 317 317 318 316 316 318 317 316 316 316 316 316 316 315 312 309 309
311 311 311 311 311 310 310 310 309 308 308 308 308 307 307 308 309 310 310 309 309 308 307 307 307 307 307 307 314 316 313 318 323 318 311 310 310 309 309 308 309 309 309 310 311 311 311 311 310 309 309 311 312 313 314 315 317 319 317 318 324 324 320 319 319 318 318 318 318 318 317 317 316 317 316 316 317 317 317 316 316 316 316 316 316 315 310 309
311 311 311 311 311 311 310 310 310 309 308 307 307 307 306 306 307 309 310 310 310 310 309 309 307 306 305 308 315 315 315 322 322 315 312 311 309 309 309 308 308 308 309 311 311 311 312 310 309 309 310 311 312 313 315 316 316 317 316 317 321 320 318 317 317 318 318 318 318 318 317 316 316 316 316 317 317 317 317 317 317 316 316 315 315 315 313 314
311 311 311 311 310 310 310 310 310 309 308 307 306 307 306 305 305 307 309 310 310 310 309 309 307 305 305 310 315 315 317 321 319 315 315 313 310 310 311 310 309 308 310 312 311 311 311 311 310 310 309 310 311 312 315 316 314 315 316 317 317 316 315 316 316 317 318 317 316 315 315 315 315 315 316 316 316 316 316 317 317 316 315 313 313 315 315 317
311 310 310 310 310 310 310 310 310 309 309 309 308 307 307 307 306 306 307 309 310 309 309 309 306 304 306 311 315 317 319 321 317 316 316 315 312 311 312 312 310 308 311 311 309 311 312 311 311 310 309 310 311 311 312 313 313 314 316 316 316 315 314 314 314 315 316 315 314 314 314 314 313 314 314 315 315 315 315 315 315 315 313 311 313 315 314 315
310 310 310 309 309 309 309 309 309 309 309 309 309 309 308 307 306 306 306 307 308 308 308 307 304 304 308 311 315 320 322 321 317 316 316 315 313 312 312 313 311 309 310 309 309 313 313 311 311 310 309 309 310 310 310 310 311 314 315 315 315 315 314 313 313 314 314 313 313 313 313 312 312 312 313 313 313 314 314 314 314 314 313 313 313 313 313 313
309 309 309 309 309 308 308 308 308 308 308 309 309 309 309 308 307 306 306 306 306 306 306 305 303 305 309 312 316 320 320 319 316 317 316 315 314 312 312 314 313 311 310 310 310 310 312 314 312 310 310 310 308 309 309 308 311 314 314 314 313 313 313 314 313 312 313 312 312 312 311 311 311 311 312 312 313 313 314 314 314 314 313 313 312 312 312 312
309 308 308 309 308 308 308 307 307 308 307 308 309 309 310 309 308 307 306 306 305 305 305 304 303 306 311 313 316 318 317 316 316 317 317 314 312 311 312 313 314 313 312 311 310 311 313 313 313 312 311 311 309 308 309 309 310 312 312 312 312 312 313 313 313 313 312 312 312 312 311 311 311 312 313 313 313 313 313 314 313 313 312 311 311 311 311 311
308 308 308 308 308 307 307 307 307 307 307 308 308 309 309 309 308 307 307 306 305 305 304 303 304 307 311 312 316 318 316 315 316 317 315 311 309 311 312 312 312 313 313 311 310 311 312 310 312 313 312 311 309 309 310 310 309 309 311 311 312 312 311 311 311 312 311 310 312 311 311 311 311 312 312 312 314 313 313 313 312 311 310 310 310 309 310 310
308 308 308 307 307 307 307 307 307 307 307 307 307 308 308 309 308 308 308 308 306 305 305 305 306 309 311 312 314 314 313 314 314 315 313 310 310 312 312 312 311 311 311 311 310 310 310 310 311 313 313 311 310 309 309 309 307 308 310 310 311 311 309 310 310 310 309 309 311 311 311 311 311 312 312 312 313 313 312 311 310 310 309 308 308 308 308 308
307 307 307 307 307 306 306 306 306 306 306 306 307 307 307 308 308 308 308 308 307 306 306 306 308 310 313 314 314 311 311 313 312 313 312 311 312 312 312 312 311 310 310 310 311 310 310 310 311 314 314 310 311 310 307 308 308 308 309 308 310 310 310 310 309 309 309 309 311 311 311 311 311 311 311 311 312 312 311 309 308 308 307 307 307 307 307 307
307 307 307 306 306 306 306 305 305 306 306 306 306 306 307 307 308 308 307 307 306 305 305 308 310 312 314 315 311 309 311 312 313 313 313 312 311 312 313 313 312 310 309 309 310 311 309 308 309 311 310 310 313 309 309 313 311 309 310 310 310 310 313 313 311 310 309 309 311 311 311 310 310 310 311 311 310 310 309 308 308 307 306 307 307 307 307 307
306 306 306 306 306 305 305 305 305 305 305 306 306 306 306 306 307 307 307 306 305 305 307 311 312 313 315 314 310 310 311 312 313 313 313 312 311 313 313 313 313 310 309 308 309 310 309 308 308 310 309 309 310 308 312 318 317 314 310 313 315 311 311 313 311 311 310 309 308 310 311 309 308 310 310 310 308 308 308 308 307 306 306 306 307 307 307 307
306 306 306 305 305 305 304 304 305 305 305 305 305 305 305 306 307 307 308 308 308 308 308 311 312 313 317 316 311 312 311 311 312 312 312 311 311 314 313 312 312 310 309 309 309 309 308 309 310 312 311 309 310 311 311 314 320 320 311 313 318 313 311 311 310 310 309 308 307 309 311 309 309 310 310 308 307 307 307 307 306 306 307 307 306 306 306 307
305 305 305 305 304 304 304 304 304 304 305 304 305 305 306 307 307 308 309 308 311 310 310 313 312 312 316 313 311 314 314 311 311 312 312 311 312 312 311 312 311 308 309 308 309 309 309 310 310 310 310 311 315 314 310 310 314 316 312 312 316 314 311 311 312 310 308 308 308 308 308 308 309 309 309 308 307 307 306 306 307 307 307 306 307 306 306 307
305 304 304 304 304 304 304 304 304 304 304 304 305 306 307 308 308 309 309 309 311 310 312 314 311 314 316 312 313 316 315 313 313 313 312 313 312 310 310 312 311 308 311 311 310 311 310 312 313 311 311 311 313 312 310 310 310 314 315 313 315 316 312 310 312 311 308 308 309 308 307 307 308 307 308 308 307 307 306 306 307 307 306 306 306 306 306 306
305 304 304 304 303 304 304 304 304 304 304 303 306 307 306 308 309 311 311 312 314 315 318 316 312 316 316 313 315 315 314 313 313 313 313 313 311 310 310 311 312 312 315 314 311 313 311 310 312 311 312 311 311 311 309 310 313 318 318 313 315 315 312 310 310 310 309 308 309 308 307 307 307 307 307 307 307 307 306 306 306 306 306 306 306 307 307 307
304 304 304 303 303 303 303 303 303 304 303 303 306 307 309 313 313 314 313 313 315 317 320 318 314 317 314 314 316 313 312 312 312 313 313 312 310 311 310 311 314 313 315 317 315 314 311 311 311 310 311 310 310 311 309 311 314 316 315 314 315 313 311 310 309 311 309 308 310 309 308 308 307 307 307 307 308 307 306 306 306 307 307 308 308 308 309 308
303 303 304 303 302 303 303 303 303 303 303 304 305 307 314 318 315 315 314 313 313 313 316 316 313 314 312 312 313 312 313 313 312 313 313 313 312 312 313 312 313 312 316 320 317 311 309 312 313 310 311 311 310 312 313 313 313 313 313 314 314 312 311 310 310 311 308 308 312 311 310 309 308 308 308 308 308 308 308 307 307 307 308 308 308 309 310 310
303 303 304 303 302 302 302 303 303 303 304 303 304 306 310 312 310 312 311 312 314 310 312 313 311 312 311 311 312 311 313 315 315 314 313 313 313 315 315 314 315 315 316 316 313 310 310 312 311 310 313 313 313 315 315 314 314 314 314 313 313 313 313 312 312 313 309 309 312 312 311 309 309 310 308 309 309 308 308 308 308 309 309 310 310 311 310 313
303 303 303 302 302 302 302 302 302 303 303 304 304 306 309 310 309 309 309 312 314 310 311 313 312 313 312 312 313 311 311 315 316 315 313 311 313 316 316 314 316 315 314 314 314 313 314 315 313 314 316 315 314 315 315 314 314 315 314 314 314 312 312 313 314 315 312 310 311 312 311 309 309 309 310 311 310 310 311 311 311 311 311 312 311 311 312 318
303 302 302 302 301 301 302 302 302 303 303 303 303 304 307 310 308 308 310 312 312 311 313 313 312 315 314 312 312 312 313 313 313 314 312 312 314 315 315 316 316 314 314 316 317 315 315 316 315 316 317 314 314 314 316 315 314 315 314 314 313 312 313 313 313 314 312 313 314 312 311 314 316 314 315 316 312 312 313 313 314 313 313 314 313 315 317 322
302 302 302 301 301 302 301 301 302 304 304 303 303 304 305 307 307 308 310 310 312 313 312 311 313 314 314 312 311 313 313 311 314 315 311 311 314 313 314 315 314 315 316 316 317 316 315 314 314 316 315 314 314 315 318 318 315 317 317 315 313 312 313 312 312 312 312 316 317 312 313 321 324 319 317 316 312 312 311 312 314 313 317 320 320 323 323 323
303 302 301 300 301 301 301 302 303 305 305 305 305 307 307 308 308 308 309 311 314 315 313 312 313 312 313 312 311 312 312 312 314 314 311 311 313 312 314 314 312 317 321 317 316 315 315 314 313 314 314 314 316 316 319 318 314 315 317 316 315 313 313 313 312 312 314 317 315 313 314 317 317 312 312 312 310 312 311 311 312 312 320 326 324 327 326 325
303 303 301 300 301 301 302 303 304 306 307 307 307 308 307 307 307 306 309 313 313 315 316 313 310 311 314 312 311 312 313 313 312 311 311 311 313 312 314 317 312 314 318 315 314 316 317 317 315 314 314 315 315 315 317 316 315 317 316 317 319 314 314 316 314 314 318 317 315 316 314 313 313 313 315 314 312 315 314 313 316 318 324 327 325 327 328 328
302 302 301 300 301 301 302 303 303 305 307 308 308 306 307 308 307 308 311 312 312 315 316 313 309 311 313 310 311 313 312 313 314 313 310 310 313 312 316 320 316 315 316 314 316 317 315 318 319 317 316 316 316 317 318 315 315 318 314 315 318 314 315 318 317 318 318 314 316 319 314 313 318 321 321 316 314 318 318 318 322 322 323 325 324 324 326 327
302 302 301 300 301 301 301 302 302 304 306 308 307 306 307 307 307 312 313 309 312 315 313 311 309 311 313 311 312 315 313 313 316 315 311 310 312 312 316 320 317 316 316 314 317 316 314 316 317 318 317 317 320 321 319 316 314 314 311 315 321 320 320 318 316 317 316 312 314 318 315 313 319 326 325 316 313 320 324 323 324 323 322 323 324 323 325 326
302 302 301 300 301 301 301 302 302 304 305 305 306 306 307 307 312 317 312 309 314 314 311 311 311 313 314 313 313 314 314 315 315 313 312 313 312 312 313 315 315 318 318 316 317 316 314 311 311 315 316 317 319 316 313 315 315 314 314 318 321 322 322 322 321 316 312 316 319 319 315 312 316 326 326 316 313 320 324 320 319 321 321 321 323 326 326 324
303 302 301 300 301 301 302 302 303 303 303 304 305 306 307 310 318 318 311 310 313 312 311 312 312 313 315 316 316 314 314 316 314 313 314 314 313 314 314 313 315 319 320 318 317 316 314 312 312 315 314 315 315 311 310 313 314 315 320 318 315 319 320 321 323 317 313 322 325 320 315 311 313 321 322 317 314 318 319 314 315 319 320 320 323 328 327 322
303 303 301 300 300 300 301 303 304 303 303 305 305 308 312 310 313 316 316 315 310 312 316 316 314 314 314 316 317 315 315 316 314 314 317 316 314 315 315 316 317 319 321 320 318 318 317 315 314 312 311 313 316 314 311 312 312 316 320 315 311 316 314 314 320 319 318 321 317 315 313 312 314 315 313 314 315 316 315 312 313 315 318 322 324 327 325 321
303 303 302 301 301 300 300 301 303 302 303 304 306 313 317 311 310 314 317 316 309 310 316 319 318 316 314 316 318 316 315 316 315 314 316 316 315 315 315 316 317 317 319 318 316 318 320 318 313 311 312 313 315 315 315 316 314 314 317 315 314 314 311 314 319 317 318 319 313 310 312 315 317 313 312 314 313 313 312 311 313 314 317 320 323 326 324 323
303 302 302 301 301 301 300 300 301 301 302 305 309 314 313 311 314 314 314 315 310 310 314 316 316 315 314 316 318 316 315 316 316 315 315 314 315 317 316 315 314 315 317 316 315 319 323 322 316 314 314 312 312 313 319 322 315 313 317 316 316 319 318 320 321 319 321 323 316 310 312 321 323 316 314 313 311 312 311 312 314 315 317 316 318 323 323 323
303 302 302 302 301 301 300 300 300 300 302 306 311 313 310 309 313 314 316 318 313 312 314 314 315 315 315 317 317 316 316 315 315 316 316 316 317 319 320 317 313 314 318 318 318 316 317 320 316 310 309 310 312 312 314 319 315 313 314 313 315 320 320 318 317 319 318 317 317 315 317 324 320 313 312 310 311 312 310 312 315 316 317 316 318 322 323 324
303 303 302 302 301 301 300 299 300 299 302 308 310 310 309 308 315 318 316 317 315 315 315 315 316 315 316 317 316 315 315 314 316 317 317 316 317 318 321 321 315 312 314 317 319 316 314 317 314 308 308 308 310 310 310 315 316 313 312 315 317 313 313 315 314 312 310 312 317 316 315 318 313 312 316 315 316 315 310 312 315 316 317 319 322 323 323 324
303 302 302 302 301 301 300 299 300 300 303 308 309 310 309 308 317 319 314 313 314 317 317 317 316 315 316 316 315 315 315 314 314 318 319 317 317 318 318 319 316 313 313 314 318 319 317 318 313 309 311 308 305 309 310 310 312 313 314 317 315 308 311 316 315 314 313 315 321 317 313 314 313 315 322 320 319 319 314 311 313 315 318 321 323 321 319 319
303 302 301 301 301 300 300 300 300 301 305 309 308 311 312 309 311 315 316 313 312 315 317 316 313 313 316 316 317 316 314 314 315 318 320 316 317 319 316 316 316 313 313 312 314 317 314 316 315 308 310 310 306 309 312 309 307 310 313 311 310 313 317 316 313 318 315 314 322 323 317 314 313 317 321 316 314 318 316 312 311 314 319 323 321 318 317 316
302 301 301 301 301 300 300 301 301 302 307 309 308 310 312 311 311 316 320 316 313 316 316 314 310 310 315 318 321 318 313 315 317 316 315 313 315 318 315 315 316 314 314 312 314 317 313 313 316 309 307 309 309 311 316 313 308 307 309 309 309 314 319 315 314 319 318 314 319 325 325 319 314 317 320 315 314 316 315 314 315 315 317 319 317 316 318 319
301 301 302 302 301 301 300 301 302 304 308 308 308 308 310 311 312 317 320 316 314 313 313 316 313 309 313 315 317 319 315 315 317 316 314 312 315 318 314 315 318 315 313 312 312 316 311 310 317 312 305 308 312 312 314 315 312 309 311 313 311 311 313 313 312 315 320 321 319 320 323 320 316 317 319 315 315 316 315 316 320 320 318 317 316 317 320 321
300 301 303 302 301 301 301 302 303 305 307 309 308 306 308 312 312 315 318 314 313 312 312 318 317 312 313 313 315 317 314 314 316 315 314 312 313 316 314 316 321 316 313 312 313 316 313 313 320 317 310 314 319 314 309 312 314 312 312 314 313 312 314 313 312 313 315 318 320 319 317 316 316 317 315 313 313 314 315 316 321 327 324 318 317 319 320 321
300 302 303 302 301 301 302 302 303 305 307 309 308 305 308 312 312 314 315 312 311 313 312 315 315 314 314 313 315 317 315 316 315 314 316 314 313 315 314 317 320 316 316 318 314 316 317 315 317 318 316 315 314 308 305 308 311 310 312 313 312 313 315 315 317 317 313 313 316 316 315 316 318 317 312 311 313 313 314 316 322 329 329 323 318 316 317 319
301 302 302 301 301 302 301 301 302 304 306 308 308 306 308 311 310 312 314 311 311 313 313 312 312 313 314 311 312 314 315 316 315 315 317 315 313 315 317 319 319 316 318 318 313 314 316 315 314 318 321 318 310 305 303 304 306 310 312 312 310 311 312 314 319 320 317 315 315 314 314 316 318 320 318 317 317 316 316 317 318 322 329 333 327 320 318 318
301 301 301 301 302 302 302 301 302 303 304 306 307 306 307 308 309 310 312 311 311 313 313 311 311 312 312 310 310 312 314 313 313 314 315 316 315 314 315 319 319 316 316 317 315 314 315 317 317 317 320 321 316 311 309 307 307 311 316 313 309 309 310 312 313 312 313 318 318 317 316 314 314 320 320 318 318 317 318 317 314 316 323 327 327 326 324 323
303 302 301 301 301 302 303 302 302 303 303 304 305 306 306 307 308 310 311 310 311 313 312 312 313 312 310 310 310 311 313 311 311 312 311 313 315 312 312 316 315 316 320 321 318 313 316 319 316 314 316 315 315 318 321 317 310 310 316 315 310 309 309 311 313 311 313 318 317 315 314 312 310 314 315 313 313 313 314 314 311 313 316 316 317 322 326 329
303 304 303 301 301 302 302 302 302 302 303 303 304 305 305 305 306 309 310 310 310 311 311 313 314 311 310 311 310 310 312 310 311 312 310 315 317 312 310 311 312 316 321 321 317 314 316 317 313 315 316 312 311 316 319 317 314 315 317 314 310 309 309 311 315 314 313 314 313 311 312 312 311 311 311 310 310 310 310 311 311 312 313 313 314 318 321 323
304 305 303 302 302 302 302 302 302 302 303 303 304 304 305 305 305 306 308 309 309 310 310 312 312 310 311 311 309 311 312 308 308 310 311 317 318 311 306 307 311 313 314 313 313 314 316 314 312 314 314 311 311 314 315 315 317 319 318 315 312 310 308 310 313 313 312 312 312 311 311 311 310 310 310 309 309 309 309 309 310 310 311 311 312 313 316 317
304 305 304 304 305 303 303 303 302 302 304 304 304 304 305 305 304 305 307 309 309 309 309 311 311 310 311 311 310 311 311 309 309 309 309 312 312 309 307 307 308 310 311 309 309 312 315 315 314 313 312 312 312 311 312 313 313 314 316 316 315 311 309 309 310 311 312 312 312 312 313 312 310 309 309 309 309 309 309 309 309 309 310 310 310 311 312 313
302 302 303 304 305 304 303 303 303 303 303 304 304 305 304 305 304 304 307 310 308 308 308 309 309 309 310 311 310 310 310 309 309 309 308 308 309 310 310 310 308 307 309 310 310 311 313 316 316 313 310 311 312 311 311 310 310 310 312 313 313 312 310 310 310 310 311 311 312 314 315 312 309 309 309 309 309 309 309 309 309 309 309 310 311 312 311 311
303 303 303 303 303 303 303 303 303 303 303 303 305 305 303 304 304 303 306 309 308 308 309 308 308 310 310 310 310 309 309 309 310 311 310 308 309 310 310 312 315 309 305 309 310 307 309 315 316 313 311 311 311 312 311 310 309 309 309 310 311 312 310 309 310 310 311 311 311 312 313 311 309 309 309 308 309 309 308 308 308 308 308 310 311 311 311 310
302 302 303 304 304 304 303 302 302 303 303 303 304 305 304 304 304 303 304 306 306 308 309 307 308 311 310 310 310 309 309 310 310 311 311 309 310 309 308 312 317 314 307 307 309 308 308 311 312 311 311 311 311 312 310 309 309 307 307 308 309 311 311 309 309 310 311 312 312 311 312 311 309 309 309 309 309 308 308 308 307 307 308 309 309 309 309 309
302 300 301 303 305 305 304 303 303 303 304 303 303 304 304 304 305 303 303 304 305 306 308 308 308 309 309 309 309 308 310 310 309 310 311 309 308 309 309 310 313 315 311 307 308 309 308 310 312 312 311 312 313 314 311 308 308 308 307 307 307 309 309 308 309 310 310 311 311 311 310 310 309 310 309 309 309 308 308 307 307 308 309 309 308 307 307 307
Wind_Speed
6 7 8 9 9 8 8 8 8 8 7 7 7 7 8 8 9 10 11 12 12 13 14 14 13 14 14 14 15 13 13 15 16 16 10 13 16 13 14 15 15 15 13 12 9 7 5 6 9 8 5 4 3 2 4 3 2 2 2 4 6 5 5 4 4 5 4 4 5 6 5 5 6 5 2 2 2 3 4 5 5 6 6 8 11 9 4 8
6 8 9 9 9 9 8 8 8 8 8 8 8 8 9 9 10 11 12 13 13 14 14 14 14 14 13 13 13 11 13 15 15 15 12 10 8 8 11 13 14 13 13 14 12 8 3 3 4 2 3 2 2 3 4 2 3 3 3 4 6 5 3 4 5 5 5 5 6 5 6 4 6 5 2 4 7 5 5 7 5 7 10 11 14 11 4 11
6 8 9 9 9 9 8 8 8 9 9 9 9 9 9 10 11 12 12 13 14 14 15 15 14 14 13 12 10 9 12 12 9 8 6 3 4 6 7 9 9 7 10 13 12 10 6 3 3 2 3 3 3 3 4 2 3 3 3 4 6 4 5 6 7 9 8 7 7 7 8 8 7 5 1 5 10 7 7 10 7 8 11 11 13 9 6 12
6 8 9 9 10 9 9 8 9 9 10 10 10 9 10 11 11 12 12 13 14 15 15 14 13 13 13 11 7 8 9 7 3 4 1 1 2 3 4 5 4 4 7 9 10 9 6 1 2 3 4 3 3 1 3 4 2 3 4 6 5 5 6 8 10 11 11 10 9 8 9 11 10 6 4 6 9 7 10 12 11 12 14 13 12 8 7 10
6 7 8 9 10 11 10 10 10 10 10 11 11 11 10 10 11 12 12 13 15 15 15 13 12 12 11 9 6 5 6 4 2 5 2 1 1 1 4 5 4 4 5 6 7 7 4 0 1 1 3 4 3 1 3 6 4 2 5 6 6 5 5 8 10 10 10 11 10 10 10 9 9 7 6 9 10 11 12 10 10 13 13 12 12 8 6 8
7 8 8 9 10 11 11 11 11 10 11 11 12 12 11 11 11 11 11 13 15 15 14 11 9 9 9 8 4 2 1 1 4 5 5 4 3 4 6 6 5 5 5 6 6 5 3 1 2 0 2 3 4 4 5 5 5 4 5 4 7 8 7 8 8 8 8 8 9 8 9 7 8 9 8 11 13 15 16 9 8 11 11 9 9 7 6 8
9 9 9 9 10 11 12 11 11 11 11 10 10 11 12 12 11 10 11 13 15 16 14 9 7 7 7 6 2 2 2 5 11 11 10 9 6 5 6 7 4 5 6 6 6 4 2 2 2 2 1 3 4 5 6 4 3 5 5 4 7 9 9 10 9 9 8 9 9 8 8 10 11 12 10 10 12 19 19 10 11 14 11 8 8 10 9 10
10 10 9 9 10 11 12 12 12 12 12 11 10 10 11 12 11 11 11 12 14 15 13 8 5 4 6 5 2 1 2 9 16 12 10 9 6 4 5 4 3 4 6 6 6 5 2 3 3 1 1 4 3 3 4 3 2 5 7 6 6 7 8 10 10 10 9 9 9 10 12 14 15 13 12 12 16 22 17 10 14 17 13 9 11 14 13 14
11 10 9 9 10 11 12 13 13 13 13 13 12 11 10 10 10 11 11 12 13 13 10 6 5 3 4 3 1 1 5 9 10 8 8 8 7 5 5 4 3 4 4 5 6 7 3 3 2 2 0 3 2 4 3 2 4 6 8 8 7 8 8 9 9 9 10 7 7 10 14 17 15 10 13 17 23 24 14 14 19 18 16 13 14 15 16 18
12 11 10 10 10 11 12 12 13 13 13 13 13 12 10 9 9 10 10 11 11 10 8 4 4 3 4 3 2 2 7 6 5 6 7 7 6 5 5 4 5 6 6 5 5 7 5 3 2 3 1 2 2 5 1 4 4 4 6 8 8 10 9 6 7 10 10 8 9 11 15 19 10 2 11 17 17 15 11 16 16 12 14 13 14 15 15 16
12 11 11 10 10 11 11 12 13 13 13 13 14 13 12 10 9 9 9 10 10 9 5 3 5 4 4 2 3 5 6 5 5 5 6 5 3 4 5 4 5 8 8 6 5 6 5 3 2 4 1 1 3 4 2 4 3 3 4 5 8 8 7 6 8 11 8 7 9 10 14 18 4 3 20 18 5 5 9 13 10 9 12 12 14 14 12 12
11 11 11 11 10 11 11 12 13 13 13 14 14 14 13 11 10 9 8 8 8 7 3 4 4 4 3 1 6 12 10 7 7 6 7 5 3 5 5 4 5 6 8 5 4 4 4 4 5 3 3 1 2 3 3 4 2 4 1 3 9 7 7 11 12 12 7 6 7 5 9 14 6 14 28 18 5 8 13 13 9 11 13 12 13 11 10 11
11 11 11 11 11 11 11 12 12 13 14 14 14 14 13 13 11 9 9 8 6 5 4 6 5 3 1 2 8 13 13 12 10 9 10 7 5 6 4 4 4 5 7 6 4 2 2 4 6 5 3 1 2 3 3 3 2 4 1 2 6 6 7 11 9 9 8 7 7 7 6 12 13 22 25 15 9 13 15 13 10 10 10 9 10 9 10 11
11 11 11 11 11 11 11 12 12 13 13 14 15 14 14 13 12 11 8 6 4 3 5 7 5 3 2 5 9 11 12 11 11 12 10 8 6 6 6 5 5 5 6 6 5 4 3 4 6 3 1 2 2 5 6 5 2 2 2 2 2 2 6 7 5 5 5 5 8 10 7 13 15 17 15 9 8 10 11 12 9 9 8 8 9 8 10 11
10 11 11 11 11 11 12 12 12 13 13 14 15 15 15 14 13 11 6 3 3 6 8 7 5 3 1 8 10 9 9 9 12 14 11 9 7 5 5 6 6 5 3 5 4 4 5 5 6 3 2 1 0 4 5 4 3 1 2 3 2 3 5 8 6 6 7 4 6 10 6 12 16 14 10 5 3 5 8 10 9 10 10 10 10 8 9 11
10 11 11 11 10 11 12 12 12 13 13 14 15 15 14 13 12 9 4 2 5 8 10 6 5 4 1 5 4 4 6 7 10 12 11 10 9 5 3 3 5 4 2 3 4 4 6 5 3 3 2 1 3 2 2 4 4 2 2 4 4 4 4 6 6 4 5 1 3 9 6 8 10 8 8 2 2 4 7 10 11 13 14 12 10 8 9 10
11 11 11 11 11 11 11 12 12 12 13 14 14 14 13 11 9 7 4 5 7 9 9 4 2 4 3 4 3 5 5 8 8 9 11 10 9 7 4 2 3 5 4 5 6 5 3 2 1 1 1 1 3 3 0 4 5 3 2 4 4 5 4 4 6 5 0 3 4 9 9 12 12 10 12 9 6 8 10 12 14 14 14 12 10 9 9 9
10 11 11 10 10 11 11 11 12 12 13 13 12 13 11 8 6 3 5 10 10 7 4 1 2 2 4 4 4 4 2 5 7 10 12 10 8 7 5 2 3 4 3 4 3 3 2 1 2 0 0 2 2 4 4 6 5 4 3 3 4 4 5 6 5 4 2 2 6 7 10 16 18 16 16 14 10 11 13 13 14 15 14 12 10 10 10 10
10 10 10 11 10 10 11 10 11 12 12 10 7 5 2 1 2 2 7 9 7 4 3 4 4 3 3 4 3 2 1 4 5 8 10 10 7 5 4 2 2 3 3 2 2 1 1 1 3 1 2 5 6 6 9 7 6 6 4 3 5 5 7 7 6 5 3 4 6 8 10 15 18 17 15 15 10 10 13 12 12 13 12 11 10 10 10 11
12 11 10 10 10 10 10 9 10 11 10 7 4 4 3 2 2 2 4 6 6 4 2 7 9 4 3 3 1 3 3 4 3 4 8 10 7 5 3 0 4 4 2 2 1 1 3 1 2 5 6 8 9 9 10 6 2 3 3 4 6 6 8 8 7 6 3 3 7 7 9 14 18 17 16 15 11 11 13 13 14 13 11 11 11 11 10 11
12 12 10 9 10 10 9 9 9 9 7 6 4 1 1 2 1 2 3 6 11 11 8 7 10 6 3 1 4 6 4 1 2 3 7 9 6 5 2 1 4 1 2 4 2 1 3 3 7 8 8 9 9 8 8 7 6 6 5 5 6 5 8 9 7 6 2 3 5 5 8 15 17 16 17 16 12 14 14 13 15 14 12 11 10 12 10 9
11 11 10 10 10 10 9 9 9 8 7 6 5 2 4 2 2 4 3 4 9 13 13 9 7 6 4 2 5 6 2 1 3 3 7 7 4 4 2 3 3 2 2 3 2 1 1 6 10 7 7 7 7 7 7 7 7 5 4 4 6 4 5 8 5 3 1 1 4 7 9 16 18 17 20 19 15 14 12 11 13 13 12 11 11 9 8 8
11 10 10 11 10 9 9 9 8 8 7 6 7 5 4 2 4 9 4 3 6 6 9 8 6 5 4 3 5 6 2 4 4 5 10 9 3 4 4 4 4 2 1 4 4 3 3 7 8 5 6 6 6 5 6 5 4 4 4 3 5 3 2 5 4 4 3 2 4 7 9 14 17 16 17 16 13 11 10 10 11 10 11 13 11 8 7 8
10 9 10 11 10 8 8 8 9 9 8 8 12 11 5 3 7 11 5 3 5 4 3 7 6 4 6 4 6 8 3 3 4 4 11 11 2 2 4 4 5 2 3 6 6 5 7 7 3 3 5 7 6 4 5 5 4 4 5 5 6 6 4 6 5 7 7 3 2 4 7 9 10 10 11 8 6 7 6 7 9 8 10 11 10 8 7 8
10 9 10 10 9 8 7 7 7 6 4 5 9 8 5 8 10 7 3 2 4 5 2 4 4 2 6 6 7 7 2 2 4 4 10 11 4 2 2 2 4 4 5 5 5 5 10 6 4 2 2 5 5 4 4 6 3 4 5 8 10 8 7 8 6 7 6 5 3 5 4 6 6 6 10 8 8 9 5 5 9 8 8 8 7 7 7 6
10 10 10 9 8 7 5 5 4 1 1 4 3 3 4 7 7 3 0 4 4 5 0 2 2 3 6 5 5 4 2 3 5 2 6 7 4 3 2 1 1 4 6 4 3 3 5 3 2 3 3 3 3 5 4 6 2 4 3 5 7 5 5 6 4 2 1 4 2 3 1 6 8 7 11 11 11 13 11 9 9 8 7 6 6 6 6 6
12 10 10 9 7 6 4 3 3 1 2 3 2 3 4 4 3 2 1 4 4 2 3 2 2 4 6 4 5 6 2 4 2 1 3 4 3 2 1 3 1 3 3 3 1 3 2 2 2 2 3 4 4 5 5 7 4 4 3 3 4 3 3 3 2 2 3 3 3 1 3 4 8 8 9 8 9 12 13 11 8 7 7 6 6 6 6 6
12 10 9 9 7 7 6 4 5 3 4 3 1 3 3 2 3 2 4 2 3 1 3 2 1 3 3 3 5 5 2 2 2 1 1 1 1 2 0 5 5 4 3 5 3 4 2 2 3 4 3 4 5 4 6 8 4 4 3 3 4 4 3 3 3 2 1 3 5 3 3 3 7 7 6 5 6 10 11 9 8 6 6 5 6 6 6 5
13 11 9 8 8 9 9 9 8 6 5 4 4 5 2 3 2 4 4 1 2 1 1 1 2 1 1 3 3 3 1 1 1 3 3 1 1 2 2 5 4 3 3 4 5 6 2 3 5 5 4 5 5 3 4 7 5 3 2 3 4 4 3 3 2 1 2 1 6 6 4 4 5 6 5 2 3 7 8 7 6 5 5 6 6 7 6 5
13 12 9 9 9 9 9 12 14 9 6 7 6 3 1 3 3 6 1 3 1 1 1 2 1 0 4 4 1 1 1 0 1 2 3 1 2 3 1 3 3 0 3 2 4 5 2 1 1 3 4 4 3 2 1 3 3 0 3 3 4 4 4 3 2 2 2 2 7 7 5 3 4 5 5 3 3 5 4 3 5 4 5 6 7 6 6 5
13 12 11 11 11 9 5 6 11 7 5 7 5 1 3 2 4 4 4 5 1 1 1 1 1 2 5 5 2 2 3 1 0 2 0 1 2 3 1 1 2 2 3 4 4 4 2 1 2 2 3 4 5 2 1 2 1 2 3 3 3 4 3 4 4 3 1 5 6 5 3 4 5 5 5 5 5 4 5 1 4 6 6 6 7 6 5 5
14 13 12 13 13 12 8 5 6 4 2 2 1 3 4 2 1 3 5 4 1 2 3 3 2 3 5 2 1 4 4 2 2 3 3 2 2 3 3 4 4 2 2 5 3 4 3 4 3 1 1 4 6 3 1 4 4 4 3 3 2 3 2 2 2 1 3 5 4 3 2 4 7 7 7 10 11 9 7 5 6 8 7 7 7 6 5 5
16 14 13 15 15 16 16 10 6 5 4 1 3 3 6 3 4 5 4 2 1 3 1 3 3 4 5 2 2 4 3 2 4 4 3 2 2 5 5 5 5 2 1 4 1 2 3 4 1 2 2 2 6 5 2 1 2 4 4 4 4 2 1 3 3 2 3 3 3 3 0 2 6 6 8 12 13 10 9 8 9 9 9 8 8 6 5 6
16 16 16 16 16 18 17 13 11 9 6 1 4 4 4 4 5 4 5 5 2 1 2 3 4 4 4 3 3 4 2 3 5 6 3 2 2 4 5 7 6 2 1 2 2 3 2 5 2 4 1 2 5 5 5 5 3 4 4 5 4 4 4 4 3 3 4 3 3 3 1 3 4 4 5 9 10 8 8 8 8 9 9 5 4 5 5 7
16 17 17 17 18 19 17 15 13 8 5 1 4 3 5 6 4 3 4 5 2 0 2 2 5 4 2 3 4 4 3 3 4 6 4 4 4 4 4 6 8 6 3 2 3 3 3 5 4 0 1 2 3 2 4 6 2 2 3 4 2 4 4 2 2 4 2 2 3 2 3 5 5 8 12 9 9 8 6 7 8 10 8 3 4 6 6 6
16 16 16 18 20 21 19 16 13 9 4 3 5 6 7 5 4 5 4 3 4 5 4 2 4 3 3 3 3 5 2 1 3 4 3 3 4 5 5 5 8 11 8 5 3 2 2 4 4 2 1 1 2 2 2 3 2 2 2 3 5 4 4 2 2 1 3 1 4 1 4 6 3 9 13 7 7 7 3 2 6 8 5 5 7 7 7 7
16 13 11 16 20 21 19 16 14 11 4 3 7 8 5 5 6 5 4 3 3 5 7 3 2 4 4 2 3 5 2 0 3 3 3 3 3 6 6 4 6 14 14 6 2 3 3 3 4 1 1 2 2 2 2 1 3 4 3 5 3 1 3 3 1 3 3 2 4 1 5 6 1 4 8 8 7 8 5 2 2 4 4 6 7 7 7 6
13 7 9 17 23 20 15 15 18 12 3 4 8 6 4 6 5 4 4 4 3 3 5 4 5 4 5 4 3 4 5 3 3 4 3 3 4 5 6 4 5 12 15 7 1 3 3 2 5 1 2 3 2 3 1 3 1 3 3 2 2 3 1 1 2 1 0 2 4 3 5 5 5 5 6 7 9 10 7 3 1 5 6 7 7 7 7 5
9 2 5 11 18 20 17 19 18 8 3 7 9 6 4 6 5 3 5 5 3 4 4 5 4 2 4 5 4 4 5 5 5 4 3 3 4 4 6 5 4 7 11 10 4 2 2 1 4 2 1 2 2 2 4 2 0 1 2 2 1 3 3 2 2 3 3 2 2 4 5 4 7 6 6 9 11 9 7 5 5 8 8 7 7 7 7 6
7 2 3 3 10 21 24 21 13 5 5 7 7 6 4 5 6 5 6 5 2 3 4 5 4 4 4 4 3 4 5 5 6 4 3 4 4 5 6 6 3 3 4 7 5 2 1 1 3 3 3 1 2 4 6 7 5 3 2 2 1 2 2 2 2 2 4 2 2 1 5 7 6 5 7 10 10 8 7 6 7 8 7 8 7 7 7 7
5 3 3 1 15 28 26 15 6 5 4 4 5 5 4 4 4 4 5 4 3 2 2 4 6 5 5 4 3 4 5 4 5 4 3 5 4 4 6 7 7 6 5 3 4 3 2 2 2 1 1 3 6 5 4 7 7 6 6 6 5 4 3 2 3 2 2 3 3 3 4 10 6 4 6 8 7 7 6 6 7 7 7 8 7 8 8 7
3 4 0 8 27 32 20 6 3 4 4 5 5 5 4 2 3 4 4 2 2 2 1 2 5 5 5 5 4 5 6 4 5 5 4 6 7 6 5 6 9 9 7 4 4 4 4 3 2 3 4 5 7 5 1 2 3 3 3 4 5 4 4 5 5 4 1 2 2 4 2 9 6 4 4 4 6 7 5 7 6 6 6 7 7 8 8 8
3 3 3 17 33 25 8 4 4 4 5 4 3 5 4 2 3 4 4 3 3 3 2 2 4 5 6 4 4 5 6 5 6 7 5 5 8 7 5 8 10 8 5 2 2 3 3 3 2 4 4 3 4 4 3 3 2 1 4 4 6 5 5 6 5 3 3 3 3 3 3 8 6 3 4 4 5 6 5 6 6 6 6 4 5 6 7 8
4 2 2 16 28 17 5 5 6 6 8 4 4 7 6 4 5 5 5 7 5 4 4 5 4 5 6 4 5 6 7 5 6 7 6 4 5 4 3 9 11 8 5 3 3 4 4 3 3 1 4 5 6 4 3 4 1 4 4 4 7 7 5 3 1 3 2 5 7 5 6 9 5 3 5 7 6 7 8 6 5 4 6 6 5 6 6 7
4 2 0 9 16 11 4 2 2 5 9 8 7 8 8 6 4 6 8 7 5 5 4 4 3 4 4 3 3 4 7 7 6 6 4 4 4 3 1 7 10 8 4 2 2 5 5 4 5 4 4 5 4 3 3 3 2 3 3 5 9 10 9 5 2 4 4 7 8 7 8 13 8 5 9 12 10 10 11 8 5 6 7 6 6 6 6 6
5 2 2 4 5 6 4 1 1 2 6 8 7 7 11 10 4 4 9 8 5 5 3 2 3 4 4 5 5 5 8 8 6 3 3 4 4 3 2 3 4 4 3 1 2 4 3 2 6 8 8 9 8 8 6 4 4 4 6 8 10 11 13 8 3 4 7 6 6 9 12 16 16 14 14 15 15 14 13 10 8 9 9 8 8 8 7 7
4 3 5 5 2 4 5 4 4 3 2 5 6 5 12 15 8 3 7 7 6 7 5 3 4 6 7 7 6 6 8 8 6 4 4 5 3 3 2 0 1 2 2 2 2 3 4 3 8 9 11 12 12 10 6 5 5 7 8 9 10 10 12 10 8 10 8 5 8 12 13 14 19 21 20 19 17 15 13 11 10 9 10 10 9 9 10 10
3 2 4 5 3 5 8 9 9 7 6 6 4 4 10 15 13 8 5 2 3 7 7 4 8 13 11 9 8 6 5 7 7 5 6 5 3 2 2 0 2 1 2 1 1 3 4 5 7 8 11 13 12 11 7 5 6 6 7 10 11 11 13 14 16 17 12 10 11 8 11 16 19 21 24 23 18 13 11 11 10 9 10 10 8 9 11 12
3 1 2 4 3 4 8 10 13 13 14 10 6 7 11 15 16 12 6 3 3 8 9 10 13 15 13 10 9 8 7 8 7 6 6 7 6 5 2 2 2 2 2 3 1 2 4 4 6 7 9 11 12 12 10 7 8 9 9 11 10 11 15 18 19 20 19 18 13 7 11 17 17 20 24 23 17 10 9 9 8 9 10 8 8 10 12 13
5 2 3 2 2 2 3 6 11 13 13 11 9 13 13 13 14 11 6 7 8 6 9 16 15 10 13 13 12 16 16 12 9 7 7 8 8 6 4 4 3 1 1 3 1 2 3 4 3 3 4 8 9 11 12 9 10 14 15 12 8 9 14 17 18 16 15 15 15 14 14 14 17 21 20 18 17 14 13 15 14 13 10 8 9 11 12 13
2 1 4 3 3 5 4 4 8 9 9 10 13 15 12 12 12 10 7 10 13 9 10 19 16 7 10 16 19 24 18 10 10 12 11 12 9 6 6 6 6 5 3 4 2 2 4 3 2 3 3 7 6 8 12 8 9 18 19 13 11 13 15 16 13 11 11 15 17 15 12 14 20 18 11 13 17 18 20 22 17 12 9 9 11 13 13 13
3 2 3 2 4 6 5 5 7 8 8 10 15 14 11 12 11 10 8 8 12 13 10 14 13 7 9 18 24 23 13 10 14 13 8 8 6 4 5 6 7 8 7 5 3 3 5 4 2 2 4 7 5 5 5 7 10 18 14 15 19 21 19 14 10 12 16 17 15 14 15 17 16 12 11 15 17 19 23 21 13 9 8 11 13 14 15 14
Wind_Direction
302 298 294 284 274 269 266 263 262 264 268 271 275 279 280 282 284 285 289 290 294 296 298 302 302 301 302 312 323 322 315 312 311 306 282 279 291 282 275 275 274 273 260 251 241 241 260 252 244 228 199 181 184 195 210 187 147 155 155 214 230 215 218 207 212 227 235 258 243 251 249 220 255 289 299 307 290 251 277 279 271 285 269 246 252 279 294 188
299 296 297 294 284 275 273 267 263 265 266 271 275 277 279 279 279 281 284 288 293 295 299 301 302 301 301 313 322 323 318 315 310 296 281 287 286 262 269 278 280 273 248 233 228 223 207 241 262 188 146 173 213 188 193 190 170 180 163 213 228 202 218 245 252 272 271 274 286 296 296 271 245 260 309 291 276 280 284 276 277 283 277 274 269 275 238 186
293 296 297 297 296 286 281 275 266 265 267 271 273 274 276 275 275 276 279 284 288 293 298 300 303 302 304 316 325 329 321 319 313 288 288 299 253 262 281 286 285 264 231 222 224 220 200 234 276 158 156 211 234 188 190 207 195 192 185 225 240 220 245 266 266 271 269 277 296 301 303 298 268 248 241 270 270 266 257 257 261 263 262 267 267 263 214 190
278 292 297 300 302 296 291 288 276 268 268 270 271 269 265 266 269 271 275 280 284 288 292 299 306 302 307 320 325 325 321 326 295 237 267 322 251 286 283 274 261 235 228 219 217 214 202 249 275 185 157 224 255 160 183 217 203 191 202 217 227 223 241 253 254 261 268 275 280 284 294 290 279 263 225 255 272 265 251 247 239 245 253 256 261 254 206 195
270 287 296 299 301 301 298 295 288 279 272 269 269 270 267 265 265 270 274 276 280 284 288 298 307 303 307 317 317 321 334 342 240 205 218 296 202 277 281 271 253 233 212 205 209 207 207 39 37 145 156 212 235 144 218 224 183 188 224 214 220 220 234 249 247 249 256 267 273 276 279 278 275 266 239 242 251 252 253 246 227 234 246 252 260 251 205 198
266 274 285 295 299 300 301 298 296 291 282 275 270 272 276 274 271 275 277 278 280 281 287 299 305 301 303 311 301 268 351 305 254 228 249 273 248 264 288 283 269 246 207 200 208 197 207 176 78 71 197 215 209 202 243 232 178 215 251 222 227 228 232 250 248 246 244 254 263 263 269 273 275 274 257 242 245 254 256 251 241 245 248 251 262 255 215 205
261 266 275 290 297 296 299 300 298 297 294 286 275 272 275 279 282 284 284 282 280 281 290 301 301 293 298 309 270 227 147 247 272 270 265 270 255 267 296 287 262 237 220 208 199 169 159 177 176 187 220 252 212 207 240 241 184 213 254 252 237 233 234 245 252 254 252 254 257 259 272 271 266 270 265 253 256 260 261 264 265 264 260 250 254 252 238 224
264 267 274 286 293 294 296 297 299 299 297 293 285 276 273 276 281 284 287 285 282 284 292 298 282 277 302 305 241 270 244 257 276 276 263 259 244 267 296 280 247 239 232 219 185 142 137 191 215 157 248 259 210 218 233 234 230 212 239 255 244 239 236 244 252 256 257 257 261 269 271 264 259 266 272 269 263 260 263 272 266 266 265 250 249 252 251 246
269 271 276 285 289 292 294 295 298 297 296 294 290 285 279 277 277 280 285 286 285 285 289 287 260 249 289 293 91 298 256 259 280 271 247 238 236 266 270 243 245 257 248 227 167 137 157 201 211 118 269 272 241 262 229 189 247 214 221 239 243 251 245 243 249 251 253 250 252 265 268 266 263 271 275 260 256 262 266 264 260 263 264 255 252 251 251 252
275 274 276 282 287 292 294 296 297 297 297 294 291 289 286 282 275 274 277 280 283 283 283 261 228 229 261 260 109 266 264 265 274 257 233 222 240 262 247 239 249 249 256 253 183 156 164 195 169 104 84 292 257 264 196 173 231 217 225 243 243 252 257 250 258 256 253 253 246 251 263 268 263 250 265 254 252 262 257 255 259 261 260 254 252 249 249 252
278 278 278 280 285 290 294 297 297 299 298 294 292 290 288 284 276 274 274 275 278 281 274 216 211 229 254 227 167 239 265 264 260 254 230 220 249 249 232 247 253 244 249 260 240 202 180 194 132 93 140 272 273 285 271 216 243 260 255 280 265 265 276 261 260 258 251 254 236 228 259 269 267 200 249 249 250 268 252 258 263 260 259 254 252 252 251 253
279 280 282 283 286 289 294 297 297 299 299 297 293 289 290 286 277 274 275 273 276 275 236 180 195 215 251 237 219 247 263 263 264 249 227 229 252 245 237 245 251 248 245 247 261 242 197 183 133 136 224 279 305 295 275 255 302 289 267 294 281 303 295 257 252 250 231 239 220 185 267 269 237 231 246 248 253 267 265 266 263 259 262 258 256 256 254 253
278 282 284 285 288 290 294 297 299 299 298 298 294 291 289 287 283 277 275 272 267 255 193 166 184 203 234 243 237 256 266 263 260 236 223 237 249 241 235 237 252 258 252 245 233 206 166 171 154 175 216 145 261 273 307 308 307 290 285 227 278 328 294 256 249 238 221 231 186 148 266 264 239 240 250 256 247 253 265 267 263 263 265 263 260 258 258 255
276 281 284 285 287 290 295 299 300 300 299 299 296 293 288 287 287 278 274 271 243 197 160 152 174 178 176 251 265 275 271 254 242 231 227 235 234 234 236 236 257 266 258 247 225 192 150 141 140 154 238 177 240 306 331 336 317 293 291 248 267 295 279 280 267 198 205 235 163 157 244 259 252 252 254 251 227 232 257 266 264 263 263 264 261 256 260 257
273 276 281 285 288 291 297 301 302 302 301 300 298 296 291 288 286 281 276 251 171 151 146 146 167 150 320 276 278 278 263 241 231 232 229 225 218 230 250 242 255 270 252 228 213 197 172 128 112 135 255 211 124 312 319 335 334 338 264 283 297 224 268 301 284 187 202 252 154 166 226 263 262 264 260 242 189 210 248 268 272 271 272 272 271 262 258 261
272 272 275 281 288 293 298 302 303 303 304 304 301 298 293 289 284 277 265 178 147 151 143 140 180 173 303 282 283 281 246 230 228 226 219 217 214 215 240 244 248 244 179 172 151 139 151 126 106 163 172 103 148 203 298 325 321 349 209 251 270 244 279 308 293 237 210 226 163 198 227 269 264 267 274 256 168 235 258 274 278 278 279 277 275 267 257 263
272 272 275 280 286 294 299 301 304 306 308 307 305 301 295 291 282 267 243 158 145 155 141 112 166 177 254 264 277 289 240 218 215 199 195 200 201 205 210 199 206 189 133 118 128 105 101 112 108 184 101 108 145 129 134 275 274 300 247 235 254 249 266 294 301 314 110 135 209 230 243 261 267 278 285 279 269 276 275 276 278 277 277 274 270 266 260 259
273 274 278 281 285 294 299 303 306 308 311 311 310 305 292 278 269 244 167 140 125 127 134 56 92 149 263 250 232 263 224 204 201 182 180 180 183 194 200 194 177 169 99 73 108 80 25 357 84 59 2 188 155 122 188 231 219 227 216 217 269 270 258 265 272 295 322 234 229 238 251 260 269 274 275 276 274 274 271 270 273 272 271 272 270 265 260 255
272 275 278 283 286 293 298 302 307 311 316 316 321 329 316 208 217 172 152 145 127 126 188 199 161 145 267 255 221 231 130 156 178 185 181 171 174 185 189 198 138 120 72 34 340 44 130 51 73 141 230 207 203 186 205 211 177 194 201 210 269 286 273 264 261 259 257 265 250 240 252 263 271 273 274 277 271 264 268 268 266 267 269 271 269 263 256 253
271 275 276 281 285 292 295 298 306 313 319 319 341 41 80 147 191 198 175 197 216 215 189 177 184 202 287 283 185 143 133 147 181 211 188 169 155 153 172 106 60 70 95 144 238 291 139 149 209 208 213 209 212 212 221 234 212 244 268 277 274 275 281 278 275 271 218 235 263 246 254 267 271 276 278 277 273 264 264 264 265 266 268 267 263 260 254 249
267 272 275 278 283 289 292 295 302 311 317 309 313 42 151 187 190 262 219 233 243 244 254 209 192 217 259 249 173 157 136 154 259 240 185 171 146 141 173 104 75 24 236 154 170 299 122 211 236 218 215 215 216 217 228 250 272 277 268 284 286 262 275 280 276 287 246 211 272 278 280 277 275 280 279 276 271 262 255 256 263 266 267 267 261 259 255 256
263 267 275 278 281 286 289 293 299 305 304 283 264 240 263 268 32 333 275 270 263 237 239 233 207 239 255 238 199 177 110 205 263 259 188 173 168 185 162 109 130 228 244 121 118 269 179 243 244 223 209 215 225 217 213 231 245 254 248 279 285 263 286 286 274 311 10 195 280 309 302 286 284 281 277 273 265 260 253 244 252 260 265 265 262 260 259 267
258 263 275 277 280 284 285 291 297 292 280 255 232 218 230 224 12 348 305 276 295 243 225 221 210 227 231 263 213 179 190 205 214 246 193 172 192 196 142 123 161 188 166 157 171 178 212 249 244 220 194 200 229 221 205 232 243 232 230 260 274 281 325 286 290 347 339 263 276 308 303 286 287 282 275 274 267 264 259 245 244 246 249 256 262 264 254 251
253 259 269 276 282 284 286 293 291 280 267 247 239 233 225 254 322 338 316 258 295 282 222 198 192 190 192 207 186 174 204 205 190 226 187 170 168 171 155 148 150 169 208 190 183 204 245 243 178 145 173 186 218 230 202 226 257 242 221 226 256 269 245 241 296 339 325 305 314 332 309 283 282 281 281 290 281 267 253 249 257 248 244 254 266 265 243 229
248 251 261 273 279 283 294 291 282 283 268 244 249 256 274 283 297 319 317 340 300 287 281 183 187 180 175 162 164 173 194 233 225 215 180 175 168 139 194 167 141 208 219 183 175 230 260 251 138 144 196 171 206 244 206 193 247 288 235 219 238 259 259 260 310 353 339 320 357 24 340 285 290 292 285 295 300 289 271 257 270 270 264 256 250 246 232 228
245 249 258 266 269 278 292 278 266 327 255 225 246 302 295 281 293 290 247 37 312 274 245 188 216 169 160 141 150 143 83 269 256 190 170 193 200 129 163 207 137 214 198 162 174 227 265 297 114 210 224 172 207 261 221 169 178 293 254 206 219 240 258 267 288 5 290 276 311 61 93 274 296 288 271 279 292 290 286 284 282 278 268 244 229 232 224 222
241 246 257 256 251 259 260 252 257 253 197 207 232 302 292 273 265 232 88 28 305 238 132 276 298 157 171 152 138 131 146 275 312 87 170 199 240 58 131 215 194 211 182 130 213 237 223 358 48 183 197 195 224 259 216 156 153 256 242 144 136 157 209 225 201 193 240 282 303 77 146 255 287 272 262 279 286 283 286 293 294 277 256 238 234 234 219 215
236 236 249 247 238 240 245 276 290 242 195 198 303 335 326 239 206 149 81 24 280 137 120 278 46 132 172 123 118 126 196 295 51 277 296 137 222 39 174 225 190 203 198 141 206 259 198 208 225 186 174 209 227 238 190 160 174 247 217 133 99 111 151 134 141 223 296 355 306 284 145 217 272 270 279 289 273 280 290 293 297 291 274 262 248 230 218 233
231 227 237 236 236 244 246 259 261 228 217 253 313 337 339 185 172 76 76 221 251 91 88 80 103 112 76 105 111 99 73 15 114 272 341 72 218 60 185 214 170 222 259 164 213 265 252 218 208 165 164 215 224 228 176 166 199 251 155 105 51 61 79 83 123 224 35 26 263 245 181 216 265 278 287 267 232 264 278 284 285 282 278 269 249 237 245 273
222 220 231 228 232 241 235 240 241 236 260 279 292 322 107 140 87 62 81 232 220 98 102 112 173 152 103 121 142 86 145 258 324 332 3 7 329 17 183 185 111 127 302 309 249 262 287 301 179 163 182 194 166 130 139 172 193 252 63 53 16 21 38 33 52 71 54 264 256 238 203 225 279 281 255 214 225 236 226 286 313 307 290 263 248 251 265 279
212 210 220 221 222 220 208 228 228 224 267 279 276 158 122 92 64 99 205 242 215 135 121 137 199 117 133 147 169 165 154 203 30 93 109 307 9 18 1 178 98 58 336 306 281 284 297 253 228 218 174 122 100 99 1 4 88 86 66 61 11 340 14 16 3 45 179 246 261 255 207 200 241 262 258 256 281 253 189 176 316 299 282 260 260 269 267 254
212 208 213 220 223 221 220 204 182 186 279 270 199 101 104 76 41 179 231 296 324 190 177 169 181 163 169 169 187 172 151 165 173 140 164 174 168 205 210 197 169 83 312 257 273 316 278 231 230 253 174 134 116 125 335 0 48 98 109 93 65 317 332 334 297 248 226 245 273 286 187 203 238 251 260 266 272 263 233 229 261 266 257 247 250 256 254 235
215 210 212 221 227 232 234 224 214 258 301 151 130 71 81 118 217 214 228 289 235 207 164 128 132 135 148 149 248 188 143 185 185 160 172 146 169 236 256 236 195 142 226 218 228 302 295 297 264 155 254 175 148 164 201 247 132 144 156 143 143 168 216 255 260 260 261 261 285 306 267 262 280 262 237 244 254 257 253 248 244 241 240 238 233 226 230 230
219 214 216 222 228 236 240 237 242 264 288 168 115 84 103 175 231 229 225 241 237 293 27 101 109 106 140 191 237 190 157 220 181 151 161 140 159 239 258 247 224 186 133 162 192 187 216 294 244 168 246 203 176 187 165 148 153 178 162 137 154 162 165 218 226 214 249 283 295 299 280 218 247 265 238 237 252 259 255 254 248 243 248 251 228 210 217 231
219 216 220 223 228 235 238 238 239 249 268 188 117 139 179 196 224 219 216 228 220 93 16 60 98 110 204 269 263 216 196 225 172 136 162 174 182 208 216 220 207 183 149 172 222 180 184 258 267 241 296 147 177 215 134 119 128 224 139 113 191 193 159 189 203 182 197 321 300 265 245 224 223 282 286 275 276 275 251 241 244 250 254 216 185 204 213 223
215 218 224 225 229 233 232 230 222 219 228 161 157 199 205 197 198 192 189 176 169 150 122 65 80 130 240 292 255 232 234 216 156 143 191 194 197 209 214 223 197 186 184 179 204 180 169 266 293 7 1 127 171 207 121 119 172 184 140 176 225 191 126 131 258 340 72 248 280 260 258 281 311 294 293 310 316 310 312 235 234 242 231 179 190 205 209 218
210 218 229 231 232 231 230 222 202 198 204 172 196 210 204 207 195 182 176 129 135 137 128 151 196 175 206 242 230 211 192 213 165 165 212 211 218 209 210 244 195 189 199 192 211 206 161 262 283 108 144 258 190 151 9 336 153 135 175 223 228 118 74 96 215 342 42 217 274 262 242 272 313 284 307 341 324 302 313 342 260 245 208 193 213 215 213 227
203 220 253 247 237 230 223 202 185 177 156 186 216 223 199 214 206 170 161 133 113 119 128 184 209 181 186 201 223 191 174 198 186 176 193 209 241 197 171 220 205 194 204 196 262 260 157 248 289 135 176 277 8 90 298 298 140 137 198 226 122 139 162 85 155 238 230 236 283 290 268 256 208 228 285 291 276 274 285 307 228 222 215 215 227 227 232 252
186 205 270 253 233 220 196 174 169 163 173 195 210 221 202 216 232 210 175 153 122 129 163 210 205 151 172 179 182 177 176 186 178 180 188 185 236 211 169 201 212 193 197 184 194 257 124 191 279 291 233 289 22 119 198 225 84 63 306 329 23 167 177 161 163 172 177 216 270 304 310 268 215 215 224 238 253 258 258 258 229 221 219 221 225 223 229 235
165 195 274 257 201 189 168 152 154 173 208 202 201 210 208 219 240 234 199 185 163 153 192 213 185 166 186 187 190 178 170 174 170 183 219 196 225 241 206 193 166 142 163 172 196 244 102 205 256 295 312 258 201 212 192 181 168 162 211 245 231 191 175 208 227 142 137 168 188 252 295 273 238 211 215 234 253 252 230 222 235 236 225 222 220 217 221 219
151 187 281 211 166 162 149 139 167 192 210 224 200 199 209 206 221 231 214 207 220 196 158 176 185 185 178 184 211 186 160 169 177 185 232 218 217 247 221 182 155 135 113 132 216 224 187 197 195 228 277 213 232 251 200 180 173 165 186 199 190 176 143 159 260 266 119 155 180 157 268 277 260 206 228 245 258 264 240 214 235 252 237 228 222 217 218 216
161 186 156 154 160 156 145 149 197 177 207 233 201 195 208 190 201 216 195 173 237 229 124 178 199 192 181 186 194 172 157 169 186 191 223 220 209 224 224 171 150 146 132 138 214 197 148 126 158 225 225 220 248 281 349 163 148 147 200 197 172 162 144 160 220 249 160 173 178 127 232 274 265 210 235 260 259 267 249 209 231 265 249 235 238 233 226 222
180 185 129 156 163 162 161 205 195 193 228 250 238 218 219 208 212 209 183 183 203 186 189 231 205 204 218 201 164 171 181 186 187 192 215 227 221 229 214 158 146 142 135 150 200 169 137 130 182 271 290 303 303 331 21 26 66 170 248 199 170 184 184 180 184 172 170 189 161 127 239 263 268 245 247 264 266 284 280 221 233 287 288 268 263 258 248 242
165 140 129 166 174 181 215 211 194 208 219 243 251 221 226 237 205 184 189 201 191 161 186 215 200 213 230 189 159 185 193 196 205 205 204 209 225 246 198 168 165 160 167 193 186 173 187 176 143 291 317 328 334 348 348 329 266 219 236 193 197 205 164 135 145 150 208 217 179 171 242 253 265 329 307 297 298 306 298 256 227 269 291 293 287 272 261 261
146 113 134 181 186 199 228 215 188 210 208 214 227 214 217 237 214 186 196 205 194 170 187 215 186 184 203 176 163 194 197 207 222 217 200 208 244 286 233 195 191 185 194 227 187 171 184 182 148 159 221 246 260 252 246 248 195 215 235 196 202 201 176 164 166 165 219 233 190 179 238 253 266 310 298 287 284 282 278 273 265 260 264 273 279 276 272 267
161 152 147 175 203 221 237 252 209 227 205 202 218 217 211 224 242 193 196 210 208 177 181 231 166 162 191 183 182 214 223 225 221 198 191 212 239 271 256 222 207 194 190 166 163 153 132 187 198 191 207 223 231 229 209 152 141 192 218 202 196 200 195 179 126 165 206 224 211 208 229 254 269 271 265 264 265 264 264 266 269 268 268 267 266 270 273 264
183 190 164 158 181 220 235 239 210 214 215 195 202 202 204 216 229 205 201 214 200 183 209 239 177 191 202 176 182 221 226 220 212 193 202 213 239 279 285 203 183 189 161 147 178 139 111 216 222 213 222 232 242 243 204 158 196 210 208 209 200 195 193 184 193 213 206 208 236 225 218 243 262 263 260 257 253 256 259 254 246 247 257 259 256 261 265 262
188 169 177 181 184 195 211 213 191 198 236 233 219 202 206 212 212 205 208 207 180 191 206 224 207 208 199 164 177 220 208 204 216 203 201 213 216 255 310 268 234 242 118 133 207 135 146 220 219 213 235 243 252 258 230 201 235 224 203 213 205 190 187 193 213 222 210 216 237 219 201 225 246 257 261 260 254 250 252 251 241 233 239 242 242 248 251 253
182 15 215 216 236 198 203 196 173 188 216 220 224 230 219 213 209 208 192 132 205 211 202 222 223 209 196 175 183 216 201 191 219 216 202 221 211 190 204 226 247 348 99 156 232 148 164 228 219 209 241 252 255 263 252 234 249 248 229 221 205 190 192 199 215 223 221 231 246 237 225 235 242 248 255 263 268 265 257 254 246 238 235 226 224 234 240 244
178 192 181 180 270 209 206 188 167 187 209 205 221 234 225 216 211 209 189 170 202 205 194 223 227 188 189 196 199 225 220 194 209 213 185 212 220 194 204 204 166 41 145 170 228 240 203 234 219 182 250 261 255 264 262 246 246 251 243 224 198 197 209 214 219 222 226 238 247 246 250 258 253 247 254 271 281 284 276 264 255 248 242 225 224 234 237 240
193 150 145 149 207 187 177 179 170 191 205 198 221 229 222 221 209 198 211 210 210 203 190 214 219 168 188 209 213 227 223 183 210 223 196 206 215 186 206 206 160 150 179 184 181 170 189 230 32 78 254 256 243 256 271 282 276 263 249 220 199 208 218 220 216 206 210 228 238 242 246 251 253 256 267 274 274 278 274 267 263 258 240 221 226 235 236 235
271 3 97 136 206 183 175 183 175 194 205 205 221 224 217 223 203 184 217 232 219 219 205 205 204 172 202 223 222 225 211 181 220 234 205 206 214 183 207 208 173 164 163 175 184 140 161 175 113 137 229 262 263 262 304 342 299 271 243 195 203 219 222 222 221 209 209 217 227 233 233 239 253 272 277 267 263 262 263 266 269 260 234 221 225 231 235 234